Year,Month,Day,Hour,Minute,Value (Times are PST for temperature in C)
2017,04,27,03,03,6.20
2017,04,27,03,04,6.20
2017,04,27,03,05,6.20
2017,04,27,03,06,6.20
2017,04,27,03,07,6.20
2017,04,27,03,08,6.20
2017,04,27,03,09,6.20
2017,04,27,03,10,6.20
2017,04,27,03,11,6.30
2017,04,27,03,12,6.30
2017,04,27,03,13,6.30
2017,04,27,03,14,6.30
2017,04,27,03,15,6.30
2017,04,27,03,16,6.30
2017,04,27,03,17,6.30
2017,04,27,03,18,6.30
2017,04,27,03,19,6.30
2017,04,27,03,20,6.30
2017,04,27,03,21,6.30
2017,04,27,03,22,6.30
2017,04,27,03,23,6.30
2017,04,27,03,24,6.30
2017,04,27,03,25,6.40
2017,04,27,03,26,6.40
2017,04,27,03,27,6.40
2017,04,27,03,28,6.40
2017,04,27,03,29,6.40
2017,04,27,03,30,6.40
2017,04,27,03,31,6.40
2017,04,27,03,32,6.40
2017,04,27,03,33,6.40
2017,04,27,03,34,6.50
2017,04,27,03,35,6.50
2017,04,27,03,36,6.50
2017,04,27,03,37,6.60
2017,04,27,03,38,6.60
2017,04,27,03,39,6.60
2017,04,27,03,40,6.60
2017,04,27,03,41,6.60
2017,04,27,03,42,6.60
2017,04,27,03,43,6.60
2017,04,27,03,44,6.70
2017,04,27,03,45,6.70
2017,04,27,03,46,6.70
2017,04,27,03,47,6.70
2017,04,27,03,48,6.70
2017,04,27,03,49,6.70
2017,04,27,03,50,6.70
2017,04,27,03,51,6.70
2017,04,27,03,52,6.70
2017,04,27,03,53,6.70
2017,04,27,03,54,6.70
2017,04,27,03,55,6.70
2017,04,27,03,56,6.70
2017,04,27,03,57,6.70
2017,04,27,03,58,6.70
2017,04,27,03,59,6.70
2017,04,27,04,00,6.70
2017,04,27,04,01,6.70
2017,04,27,04,02,6.70
2017,04,27,04,03,6.70
2017,04,27,04,04,6.70
2017,04,27,04,05,6.70
2017,04,27,04,06,6.70
2017,04,27,04,07,6.70
2017,04,27,04,08,6.70
2017,04,27,04,09,6.70
2017,04,27,04,10,6.60
2017,04,27,04,11,6.60
2017,04,27,04,12,6.60
2017,04,27,04,13,6.60
2017,04,27,04,14,6.60
2017,04,27,04,15,6.60
2017,04,27,04,16,6.60
2017,04,27,04,17,6.60
2017,04,27,04,18,6.60
2017,04,27,04,19,6.60
2017,04,27,04,20,6.60
2017,04,27,04,21,6.60
2017,04,27,04,22,6.60
2017,04,27,04,23,6.60
2017,04,27,04,24,6.50
2017,04,27,04,25,6.50
2017,04,27,04,26,6.50
2017,04,27,04,27,6.50
2017,04,27,04,28,6.50
2017,04,27,04,29,6.50
2017,04,27,04,30,6.50
2017,04,27,04,31,6.50
2017,04,27,04,32,6.50
2017,04,27,04,33,6.50
2017,04,27,04,34,6.50
2017,04,27,04,35,6.50
2017,04,27,04,36,6.50
2017,04,27,04,37,6.60
2017,04,27,04,38,6.60
2017,04,27,04,39,6.60
2017,04,27,04,40,6.60
2017,04,27,04,41,6.60
2017,04,27,04,42,6.60
2017,04,27,04,43,6.50
2017,04,27,04,44,6.50
2017,04,27,04,45,6.50
2017,04,27,04,46,6.50
2017,04,27,04,47,6.50
2017,04,27,04,48,6.50
2017,04,27,04,49,6.50
2017,04,27,04,50,6.50
2017,04,27,04,51,6.50
2017,04,27,04,52,6.50
2017,04,27,04,53,6.50
2017,04,27,04,54,6.50
2017,04,27,04,55,6.50
2017,04,27,04,56,6.40
2017,04,27,04,57,6.40
2017,04,27,04,58,6.40
2017,04,27,04,59,6.40
2017,04,27,05,00,6.40
2017,04,27,05,01,6.40
2017,04,27,05,02,6.40
2017,04,27,05,03,6.40
2017,04,27,05,04,6.40
2017,04,27,05,05,6.40
2017,04,27,05,06,6.40
2017,04,27,05,07,6.40
2017,04,27,05,08,6.40
2017,04,27,05,09,6.40
2017,04,27,05,10,6.40
2017,04,27,05,11,6.40
2017,04,27,05,12,6.40
2017,04,27,05,13,6.40
2017,04,27,05,14,6.40
2017,04,27,05,15,6.40
2017,04,27,05,16,6.40
2017,04,27,05,17,6.40
2017,04,27,05,18,6.40
2017,04,27,05,19,6.40
2017,04,27,05,20,6.40
2017,04,27,05,21,6.40
2017,04,27,05,22,6.40
2017,04,27,05,23,6.40
2017,04,27,05,24,6.40
2017,04,27,05,25,6.40
2017,04,27,05,26,6.50
2017,04,27,05,27,6.50
2017,04,27,05,28,6.50
2017,04,27,05,29,6.50
2017,04,27,05,30,6.50
2017,04,27,05,31,6.50
2017,04,27,05,32,6.50
2017,04,27,05,33,6.50
2017,04,27,05,34,6.50
2017,04,27,05,35,6.60
2017,04,27,05,36,6.60
2017,04,27,05,37,6.60
2017,04,27,05,38,6.60
2017,04,27,05,39,6.60
2017,04,27,05,40,6.60
2017,04,27,05,41,6.60
2017,04,27,05,42,6.60
2017,04,27,05,43,6.60
2017,04,27,05,44,6.60
2017,04,27,05,45,6.60
2017,04,27,05,46,6.60
2017,04,27,05,47,6.60
2017,04,27,05,48,6.60
2017,04,27,05,49,6.60
2017,04,27,05,50,6.60
2017,04,27,05,51,6.60
2017,04,27,05,52,6.60
2017,04,27,05,53,6.60
2017,04,27,05,54,6.60
2017,04,27,05,55,6.50
2017,04,27,05,56,6.50
2017,04,27,05,57,6.50
2017,04,27,05,58,6.50
2017,04,27,05,59,6.50
2017,04,27,06,00,6.50
2017,04,27,06,01,6.50
2017,04,27,06,02,6.50
2017,04,27,06,03,6.50
2017,04,27,06,04,6.50
2017,04,27,06,05,6.50
2017,04,27,06,06,6.50
2017,04,27,06,07,6.50
2017,04,27,06,08,6.50
2017,04,27,06,09,6.40
2017,04,27,06,10,6.40
2017,04,27,06,11,6.40
2017,04,27,06,12,6.40
2017,04,27,06,13,6.40
2017,04,27,06,14,6.40
2017,04,27,06,15,6.40
2017,04,27,06,16,6.40
2017,04,27,06,17,6.40
2017,04,27,06,18,6.40
2017,04,27,06,19,6.40
2017,04,27,06,20,6.40
2017,04,27,06,21,6.40
2017,04,27,06,22,6.40
2017,04,27,06,23,6.40
2017,04,27,06,24,6.40
2017,04,27,06,25,6.40
2017,04,27,06,26,6.40
2017,04,27,06,27,6.40
2017,04,27,06,28,6.40
2017,04,27,06,29,6.40
2017,04,27,06,30,6.40
2017,04,27,06,31,6.40
2017,04,27,06,32,6.40
2017,04,27,06,33,6.40
2017,04,27,06,34,6.40
2017,04,27,06,35,6.50
2017,04,27,06,36,6.50
2017,04,27,06,37,6.50
2017,04,27,06,38,6.50
2017,04,27,06,39,6.50
2017,04,27,06,40,6.60
2017,04,27,06,41,6.60
2017,04,27,06,42,6.60
2017,04,27,06,43,6.60
2017,04,27,06,44,6.60
2017,04,27,06,45,6.60
2017,04,27,06,46,6.60
2017,04,27,06,47,6.60
2017,04,27,06,48,6.70
2017,04,27,06,49,6.70
2017,04,27,06,50,6.70
2017,04,27,06,51,6.70
2017,04,27,06,52,6.70
2017,04,27,06,53,6.80
2017,04,27,06,54,6.80
2017,04,27,06,55,6.80
2017,04,27,06,56,6.80
2017,04,27,06,57,6.80
2017,04,27,06,58,6.80
2017,04,27,06,59,6.80
2017,04,27,07,00,6.80
2017,04,27,07,01,6.80
2017,04,27,07,02,6.90
2017,04,27,07,03,6.90
2017,04,27,07,04,6.90
2017,04,27,07,05,6.90
2017,04,27,07,06,6.90
2017,04,27,07,07,6.90
2017,04,27,07,08,6.90
2017,04,27,07,09,7.00
2017,04,27,07,10,7.00
2017,04,27,07,11,7.00
2017,04,27,07,12,7.00
2017,04,27,07,13,7.10
2017,04,27,07,14,7.10
2017,04,27,07,15,7.10
2017,04,27,07,16,7.10
2017,04,27,07,17,7.20
2017,04,27,07,18,7.20
2017,04,27,07,19,7.20
2017,04,27,07,20,7.20
2017,04,27,07,21,7.20
2017,04,27,07,22,7.30
2017,04,27,07,23,7.30
2017,04,27,07,24,7.30
2017,04,27,07,25,7.30
2017,04,27,07,26,7.30
2017,04,27,07,27,7.30
2017,04,27,07,28,7.30
2017,04,27,07,29,7.30
2017,04,27,07,30,7.30
2017,04,27,07,31,7.30
2017,04,27,07,32,7.30
2017,04,27,07,33,7.30
2017,04,27,07,34,7.40
2017,04,27,07,35,7.40
2017,04,27,07,36,7.40
2017,04,27,07,37,7.40
2017,04,27,07,38,7.40
2017,04,27,07,39,7.40
2017,04,27,07,40,7.40
2017,04,27,07,41,7.40
2017,04,27,07,42,7.40
2017,04,27,07,43,7.50
2017,04,27,07,44,7.50
2017,04,27,07,45,7.50
2017,04,27,07,46,7.60
2017,04,27,07,47,7.60
2017,04,27,07,48,7.60
2017,04,27,07,49,7.60
2017,04,27,07,50,7.70
2017,04,27,07,51,7.70
2017,04,27,07,52,7.70
2017,04,27,07,53,7.70
2017,04,27,07,54,7.80
2017,04,27,07,55,7.80
2017,04,27,07,56,7.80
2017,04,27,07,57,7.80
2017,04,27,07,58,7.80
2017,04,27,07,59,7.80
2017,04,27,08,00,7.80
2017,04,27,08,01,7.80
2017,04,27,08,02,7.90
2017,04,27,08,03,7.90
2017,04,27,08,04,7.90
2017,04,27,08,05,7.90
2017,04,27,08,06,7.90
2017,04,27,08,07,7.90
2017,04,27,08,08,8.00
2017,04,27,08,09,8.00
2017,04,27,08,10,8.10
2017,04,27,08,11,8.10
2017,04,27,08,12,8.10
2017,04,27,08,13,8.20
2017,04,27,08,14,8.20
2017,04,27,08,15,8.30
2017,04,27,08,16,8.30
2017,04,27,08,17,8.30
2017,04,27,08,18,8.30
2017,04,27,08,19,8.30
2017,04,27,08,20,8.30
2017,04,27,08,21,8.30
2017,04,27,08,22,8.30
2017,04,27,08,23,8.30
2017,04,27,08,24,8.30
2017,04,27,08,25,8.40
2017,04,27,08,26,8.40
2017,04,27,08,27,8.40
2017,04,27,08,28,8.40
2017,04,27,08,29,8.40
2017,04,27,08,30,8.50
2017,04,27,08,31,8.60
2017,04,27,08,32,8.60
2017,04,27,08,33,8.70
2017,04,27,08,34,8.70
2017,04,27,08,35,8.80
2017,04,27,08,36,8.90
2017,04,27,08,37,8.90
2017,04,27,08,38,9.00
2017,04,27,08,39,9.00
2017,04,27,08,40,9.10
2017,04,27,08,41,9.10
2017,04,27,08,42,9.10
2017,04,27,08,43,9.00
2017,04,27,08,44,9.00
2017,04,27,08,45,9.00
2017,04,27,08,46,9.00
2017,04,27,08,47,9.00
2017,04,27,08,48,8.90
2017,04,27,08,49,9.00
2017,04,27,08,50,9.10
2017,04,27,08,51,9.10
2017,04,27,08,52,9.10
2017,04,27,08,53,9.10
2017,04,27,08,54,9.10
2017,04,27,08,55,9.10
2017,04,27,08,56,9.10
2017,04,27,08,57,9.10
2017,04,27,08,58,9.10
2017,04,27,08,59,9.10
2017,04,27,09,00,9.10
2017,04,27,09,01,9.20
2017,04,27,09,02,9.20
2017,04,27,09,03,9.20
2017,04,27,09,04,9.20
2017,04,27,09,05,9.30
2017,04,27,09,06,9.30
2017,04,27,09,07,9.40
2017,04,27,09,08,9.60
2017,04,27,09,09,9.60
2017,04,27,09,10,9.70
2017,04,27,09,11,9.70
2017,04,27,09,12,9.70
2017,04,27,09,13,9.80
2017,04,27,09,14,9.80
2017,04,27,09,15,9.80
2017,04,27,09,16,9.80
2017,04,27,09,17,9.80
2017,04,27,09,18,9.80
2017,04,27,09,19,9.80
2017,04,27,09,20,9.80
2017,04,27,09,21,9.80
2017,04,27,09,22,9.80
2017,04,27,09,23,9.80
2017,04,27,10,49,10.90
2017,04,27,10,50,11.00
2017,04,27,10,51,11.00
2017,04,27,10,52,11.20
2017,04,27,10,53,11.30
2017,04,27,10,54,11.30
2017,04,27,10,55,11.50
2017,04,27,10,56,11.60
2017,04,27,10,57,11.60
2017,04,27,10,58,11.60
2017,04,27,10,59,11.60
2017,04,27,11,00,11.60
2017,04,27,11,01,11.70
2017,04,27,11,02,11.70
2017,04,27,11,03,11.80
2017,04,27,11,04,11.90
2017,04,27,11,05,11.90
2017,04,27,11,06,11.90
2017,04,27,11,07,11.90
2017,04,27,11,08,11.90
2017,04,27,11,09,11.90
2017,04,27,11,10,11.90
2017,04,27,11,11,11.90
2017,04,27,11,12,11.90
2017,04,27,11,13,11.90
2017,04,27,11,14,11.90
2017,04,27,11,15,11.90
2017,04,27,11,16,11.90
2017,04,27,11,17,11.90
2017,04,27,11,18,11.90
2017,04,27,11,19,11.90
2017,04,27,11,20,11.90
2017,04,27,11,21,11.90
2017,04,27,11,22,11.90
2017,04,27,11,23,11.90
2017,04,27,11,24,11.90
